This is the latest recevied weather packets stored in our database for station/object KO6TH-15. If no packets are shown the sender has not sent any weather packets the latest 10 day(s).
| Time | Temp. | Humidity | Pressure | Rain* | Wind** | Luminosity | Snow |
|---|---|---|---|---|---|---|---|
| 1778027210 | 16.67° C | 76% | 0 hPa | 0 mm | - | - | - |
| 1778026610 | 16.67° C | 78% | 0 hPa | 0 mm | - | - | - |
| 1778025980 | 16.11° C | 79% | 0 hPa | 0 mm | - | - | - |
| 1778025350 | 16.11° C | 80% | 0 hPa | 0 mm | - | - | - |
| 1778024720 | 15° C | 84% | 0 hPa | 0 mm | - | - | - |
| 1778024090 | 15° C | 83% | 0 hPa | 0 mm | - | - | - |
| 1778023490 | 15.56° C | 83% | 0 hPa | 0 mm | - | - | - |
| 1778022860 | 15° C | 83% | 0 hPa | 0 mm | - | - | - |
| 1778022260 | 15.56° C | 82% | 0 hPa | 0 mm | - | - | - |
| 1778021630 | 15.56° C | 81% | 0 hPa | 0 mm | - | - | - |
| 1778021030 | 15.56° C | 80% | 0 hPa | 0 mm | - | - | - |
| 1778020400 | 16.11° C | 79% | 0 hPa | 0 mm | - | - | - |
| 1778019800 | 16.11° C | 79% | 0 hPa | 0 mm | - | - | - |
| 1778019200 | 16.11° C | 80% | 0 hPa | 0 mm | - | - | - |
| 1778018570 | 15.56° C | 81% | 0 hPa | 0 mm | - | - | - |
| 1778017970 | 15.56° C | 81% | 0 hPa | 0 mm | - | - | - |
| 1778017370 | 15.56° C | 82% | 0 hPa | 0 mm | - | - | - |
| 1778016740 | 15.56° C | 83% | 0 hPa | 0 mm | - | - | - |
| 1778016140 | 15.56° C | 81% | 0 hPa | 0 mm | - | - | - |
| 1778015510 | 15.56° C | 81% | 0 hPa | 0 mm | - | - | - |
| 1778014910 | 15.56° C | 81% | 0 hPa | 0 mm | - | - | - |
| 1778014280 | 15.56° C | 80% | 0 hPa | 0 mm | - | - | - |
| 1778013650 | 15.56° C | 82% | 0 hPa | 0 mm | - | - | - |
| 1778013050 | 15° C | 83% | 0 hPa | 0 mm | - | - | - |
| 1778012420 | 14.44° C | 84% | 0 hPa | 0 mm | - | - | - |
* Rain latest hour (hover to see other rain measurements)
** Current wind speed in m/s (hover to see current wind gust speed)